Location: Walnut Hills Mobile Home Park
(34.0445°N, 117.8184°W)
Time: 02:45:21
(UTC+00:00)

Meteor 1-19 Rocket - Pass Details

Date: 17 December 2025
Orbit: 808 x 924 km, 81.2° (Epoch: 15 January)

Event Time Altitude Azimuth Distance (km) Brightness Sun altitude
Rises 13:52:01 0° 349° (NNW) 3,525 7.1 -12.0°
Reaches altitude 10° 13:54:28 10° 347° (NNW) 2,594 6.4 -11.5°
Maximum altitude 14:00:23 72° 265° (W) 967 4.3 -10.3°
Drops below altitude 10° 14:06:21 10° 181° (S) 2,613 7.0 -9.2°
Sets 14:08:50 0° 180° (S) 3,553 7.8 -8.7°
